Regional Weather Roundup
Issued by NWS

Home | Current Version | Previous Version | Graphics & Text | Print | Product List | Glossary Off
Versions: 1 2 3 4 5 6 7 8 9 10 11 12 13 14 15 16 17 18 19 20 21 22 23 24 25 26 27 28 29 30 31 32 33 34 35 36 37 38 39 40 41 42 43 44 45 46 47 48 49 50

720
ASUS43 KMKX 231911
RWRWI

WISCONSIN REGIONAL WEATHER ROUNDUP
NATIONAL WEATHER SERVICE MILWAUKEE/SULLIVAN WI
200 PM CDT SAT SEP 23 2017

NOTE: "FAIR" INDICATES FEW OR NO CLOUDS BELOW 12,000 FEET WITH NO
SIGNIFICANT WEATHER AND/OR OBSTRUCTIONS TO VISIBILITY.

WIZ001-002-006>008-014>016-023>028-232000-
NORTHWEST WISCONSIN

CITY           SKY/WX    TMP DP  RH WIND       PRES   REMARKS
SUPERIOR ARPT  PTSUNNY   85  73  66 SW6       29.92F HX  91
ASHLAND        SUNNY     88  71  57 S8        29.94F HX  94
HAYWARD        SUNNY     84  70  62 S13       29.97F HX  88
SIREN          CLOUDY    84  69  59 S6        29.96R HX  88
CUMBERLAND     CLOUDY    81  68  65 S13       29.98F HX  83
RICE LAKE      CLOUDY    85  69  58 S9        29.99F HX  88
CHETEK         CLOUDY    85  72  65 S9        29.99S HX  90
LADYSMITH      SUNNY     86  70  59 S12       30.02F HX  91
EAU CLAIRE     SUNNY     88  68  51 S13G22    29.98F HX  91
MENOMONIE      MOSUNNY   86  70  58 S9        29.98F HX  91
NEW RICHMOND   MOSUNNY   84  68  57 S12       29.97S HX  87
OSCEOLA        PTSUNNY   86  69  56 SW13G18   29.98S HX  90
$$

WIZ003>005-009-010-017-018-232000-
NORTH CENTRAL WISCONSIN

CITY           SKY/WX    TMP DP  RH WIND       PRES   REMARKS
MANITOWISH WTR NOT AVBL
ARBOR VITAE    MOSUNNY   85  69  60 S14G22    30.02F HX  89
WOODRUFF       MOSUNNY   85  69  60 S14G22    30.02F HX  89
RHINELANDER    MOSUNNY   85  68  56 SW12      30.05F HX  88
EAGLE RIVER    MOSUNNY   84  66  54 SW8       30.03F HX  86
LAND O LAKES   SUNNY     85  67  54 S8G16     30.04F HX  88
PHILLIPS       PTSUNNY   84  71  64 S13       30.01F HX  89
TOMAHAWK       MOSUNNY   85  67  54 S5        30.04F HX  88
MEDFORD        PTSUNNY   84  67  56 SW12      30.04F HX  87
MERRILL        MOSUNNY   87  67  52 SW13G18   30.05S HX  90
$$

WIZ029-030-035-036-043>047-232000-
CENTRAL WISCONSIN

CITY           SKY/WX    TMP DP  RH WIND       PRES   REMARKS
WAUSAU         LGT RAIN  85  65  51 SW14G22   30.03F HX  86
MOSINEE        MOSUNNY   86  66  51 SW14      30.06F HX  88
MARSHFIELD     MOSUNNY   87  65  47 SW12      30.04F HX  89
STEVENS POINT  MOSUNNY   87  66  49 S15       30.05F HX  88
WAUPACA        MOSUNNY   90  66  44 SW7       30.05F HX  93
WAUTOMA        MOSUNNY   89  68  49 W8        30.05F HX  93
WISC RAPIDS    MOSUNNY   89  68  49 SW9       30.05F HX  93
CAMP DOUGLAS   MOSUNNY   90  68  48 S9G17     30.03F HX  93
$$

WIZ011>013-019>022-031-037>040-048>050-232000-
NORTHEAST WISCONSIN

CITY           SKY/WX    TMP DP  RH WIND       PRES   REMARKS
ANTIGO         SUNNY     86  67  53 SW12G20   30.07F HX  88
SHAWANO        SUNNY     90  66  44 SW8G17    30.04S HX  92
OCONTO         SUNNY     90  67  46 W14G20    30.04S HX  92
STURGEON BAY   SUNNY     88  69  53 S9        30.05F HX  92
GREEN BAY      SUNNY     89  69  51 SW12      30.05F HX  93
MANITOWOC      SUNNY     84  69  60 S10       30.07F HX  88
APPLETON       MOSUNNY   88  64  45 SE7       30.06F HX  89
CLINTONVILLE   MOSUNNY   90  64  43 SW12      30.04F HX  91
OSHKOSH        SUNNY     89  65  44 SW10      30.05F HX  91
$$

WIZ032>034-041-042-053>061-232000-
SOUTHWEST WISCONSIN

CITY           SKY/WX    TMP DP  RH WIND       PRES   REMARKS
LA CROSSE      MOSUNNY   91  67  44 S13       29.99F HX  94
SPARTA         MOSUNNY   88  66  47 S12G18    30.02F HX  90
VIROQUA        SUNNY     89  65  46 SW15      30.06F HX  90
BOSCOBEL       MOSUNNY   93  63  36 VRB7      30.02F HX  94
PRAIRIE DU CHI SUNNY     92  60  34 S9        30.01F HX  91
PLATTEVILLE    SUNNY     92  64  39 SW7       30.06F HX  93
$$

WIZ056-057-062-063-064-067-068-232000-
SOUTH CENTRAL WISCONSIN

CITY           SKY/WX    TMP DP  RH WIND       PRES   REMARKS
REEDSBURG      SUNNY     90  66  45 S6        30.04F HX  93
BARABOO/DELLS  NOT AVBL
LONE ROCK      SUNNY     92  64  39 SW8G17    30.03F HX  93
MINERAL POINT  SUNNY     91  61  35 SW8       30.07F HX  91
MADISON        MOSUNNY   91  63  39 S9        30.05F HX  92
MIDDLETON      SUNNY     93  57  29 SW7       30.06F HX  92
WATERTOWN      SUNNY     91  64  41 SW5       30.06F HX  92
MONROE         SUNNY     91  55  29 SW13      30.07F HX  89
JANESVILLE     PTSUNNY   93  59  31 S9        30.06F HX  92
$$

WIZ051-052-058>065-066-070>072-232000-
SOUTHEAST WISCONSIN

CITY           SKY/WX    TMP DP  RH WIND       PRES   REMARKS
MILWAUKEE      MOSUNNY   88  68  51 SE10      30.07F HX  91
WAUKESHA       MOSUNNY   88  61  40 CALM      30.09F HX  88
MILWAUKEE/TIMM PTSUNNY   90  61  37 SE9       30.08F HX  89
RACINE         SUNNY     87  68  52 SE12      30.09F HX  90
BURLINGTON     SUNNY     90  64  41 SW3       30.07F HX  92
KENOSHA        MOSUNNY   93  67  42 E15       30.07F HX  96
FOND DU LAC    SUNNY     89  63  41 SW9       30.06F HX  90
SHEBOYGAN      SUNNY     89  72  56 S8        30.07F HX  96
WEST BEND        N/A     90  59  35 CALM      30.08F HX  89
JUNEAU         SUNNY     88  65  46 S6        30.08F HX  90
$$

LSZ147-162-232000-
LAKE SUPERIOR

STATION/POSITION TIME  TEMP    WIND        PRES    WAVE
                       AIR SEA DIR/SP/G            HT/PER
                 (UTC) (F)     (DEG/KT/KT) (MB)    (FT/S)
W MID LAKE BUOY  1850   62 55  210/  8/  8 1013.0F   1/ 4
DEVILS ISLAND    1900   76     270/  5/  6 1012.9F
SAXON HARBOR     1840   87     190/  8/ 11 1012.9F
$$

LMZ867-665-643>646-232000-
LAKE MICHIGAN

STATION/POSITION TIME  TEMP    WIND        PRES    WAVE
                       AIR SEA DIR/SP/G            HT/PER
                 (UTC) (F)     (DEG/KT/KT) (MB)    (FT/S)
S GREEN BAY BUOY 1900   75 69  180/  6/  6 1017.2
N MID LAKE BUOY  1850   69 67  190/ 12/ 16 1018.1F   2/ 4
NORTHPORT PIER   1840   77     140/  7/ 10 1017.3F
KEWAUNEE LAKESHO 1848   67     180/ 11/ 12 1017.3F
SHEBOYGAN LAKESH 1900   72     170/ 15/ 15 1017.7F
PORT WASHINGTON  1840   77     170/  3/  4 1019.6F
ATWATER BUOY     1839   71 69  170/  4/  6 1018.7F
MILWAUKEE LAKESH 1850   73     140/  7/  8   N/A
S MID LAKE BUOY  1850   73 72  120/  6/  6 1019.1F   0
KENOSHA   LAKESH 1900   75     160/  8/  9 1018.3
$$

TC  - TEMPERATURE IN CELSIUS
VSB - VISIBILITY IN STATUTE MILES
WCI - WIND CHILL INDEX
HX  - HEAT INDEX





USA.gov is the U.S. government's official web portal to all federal, state and local government web resources and services.